When you browse on this site, cookies collect data to enhance your experience and personalize the content and advertising you see.
Visit our Privacy Policy to learn more. By continuing to use the site, you agree to this use of cookies and data.
  • In Österreich
  • Länderverzeichnis
  • Für 7 Tage
  • Wassertemperatur
  • Wetterkarte
  • News
  • Widgets
  • user-avatar
    Anmelden

    Stündliche Wetter Tetepango

    Heute, 23 August, Freitag

    Zeit Temperatur Niederschläge Wind Luftdruck Luftfeuchtigkeit
    00:00 +16°C° 1.2 mm 1 m/S 589 mmHg 90%
    01:00 +16°C° 1.2 mm 1 m/S 589 mmHg 91%
    02:00 +15°C° 1.2 mm 1 m/S 589 mmHg 91%
    03:00 +15°C° 0.7 mm 1 m/S 589 mmHg 92%
    04:00 +15°C° 0.7 mm 1 m/S 589 mmHg 92%
    05:00 +13°C° 0 mm 0 m/S 589 mmHg 89%
    06:00 +16°C° 0 mm 1 m/S 589 mmHg 84%
    07:00 +18°C° 0 mm 1 m/S 590 mmHg 78%
    08:00 +20°C° 0 mm 1 m/S 591 mmHg 73%
    09:00 +20°C° 0.2 mm 2 m/S 591 mmHg 67%
    10:00 +23°C° 0.2 mm 2 m/S 592 mmHg 62%
    11:00 +24°C° 0.2 mm 2 m/S 592 mmHg 56%
    12:00 +24°C° 0.7 mm 3 m/S 592 mmHg 56%
    13:00 +25°C° 0.7 mm 4 m/S 591 mmHg 56%
    14:00 +25°C° 0.7 mm 4 m/S 591 mmHg 55%
    15:00 +23°C° 1.6 mm 4 m/S 591 mmHg 61%
    16:00 +22°C° 1.6 mm 3 m/S 590 mmHg 67%
    17:00 +21°C° 1.6 mm 3 m/S 589 mmHg 73%
    18:00 +19°C° 1.3 mm 3 m/S 589 mmHg 78%
    19:00 +18°C° 1.3 mm 4 m/S 589 mmHg 82%
    20:00 +15°C° 1.3 mm 4 m/S 589 mmHg 87%
    21:00 +14°C° 0.1 mm 3 m/S 589 mmHg 87%
    22:00 +15°C° 0.1 mm 2 m/S 589 mmHg 88%
    23:00 +15°C° 0.1 mm 2 m/S 589 mmHg 88%

    Morgen, 24 August, Samstag

    Zeit Temperatur Niederschläge Wind Luftdruck Luftfeuchtigkeit
    00:00 +15°C° 0 mm 1 m/S 589 mmHg 87%
    01:00 +15°C° 0 mm 1 m/S 588 mmHg 87%
    02:00 +15°C° 0 mm 1 m/S 588 mmHg 86%
    03:00 +14°C° 0 mm 1 m/S 588 mmHg 86%
    04:00 +14°C° 0 mm 1 m/S 588 mmHg 85%
    05:00 +14°C° 0 mm 1 m/S 588 mmHg 85%
    06:00 +16°C° 0 mm 1 m/S 589 mmHg 79%
    07:00 +18°C° 0 mm 1 m/S 590 mmHg 74%
    08:00 +20°C° 0 mm 1 m/S 591 mmHg 68%
    09:00 +21°C° 0.1 mm 1 m/S 591 mmHg 64%
    10:00 +23°C° 0.1 mm 1 m/S 592 mmHg 60%
    11:00 +24°C° 0.1 mm 1 m/S 592 mmHg 56%
    12:00 +24°C° 0.8 mm 1 m/S 592 mmHg 55%
    13:00 +25°C° 0.8 mm 2 m/S 592 mmHg 54%
    14:00 +25°C° 0.8 mm 2 m/S 591 mmHg 53%
    15:00 +25°C° 1.3 mm 2 m/S 591 mmHg 58%
    16:00 +24°C° 1.3 mm 2 m/S 590 mmHg 63%
    17:00 +23°C° 1.3 mm 2 m/S 590 mmHg 69%
    18:00 +20°C° 1.6 mm 2 m/S 590 mmHg 74%
    19:00 +19°C° 1.6 mm 2 m/S 590 mmHg 79%
    20:00 +17°C° 1.6 mm 2 m/S 590 mmHg 84%
    21:00 +18°C° 0.2 mm 1 m/S 590 mmHg 85%
    22:00 +16°C° 0.2 mm 1 m/S 590 mmHg 85%
    23:00 +15°C° 0.2 mm 0 m/S 589 mmHg 86%

    übermorgen, 25 August, Sonntag

    Zeit Temperatur Niederschläge Wind Luftdruck Luftfeuchtigkeit
    00:00 +15°C° 0 mm 0 m/S 589 mmHg 85%
    01:00 +15°C° 0 mm 0 m/S 589 mmHg 85%
    02:00 +15°C° 0 mm 0 m/S 588 mmHg 85%
    03:00 +14°C° 0 mm 0 m/S 588 mmHg 85%
    04:00 +14°C° 0 mm 0 m/S 588 mmHg 85%
    05:00 +13°C° 0 mm 0 m/S 588 mmHg 86%
    06:00 +15°C° 0 mm 0 m/S 589 mmHg 80%
    07:00 +19°C° 0 mm 1 m/S 590 mmHg 73%
    08:00 +21°C° 0 mm 1 m/S 591 mmHg 67%
    09:00 +22°C° 0 mm 1 m/S 591 mmHg 62%
    10:00 +24°C° 0 mm 1 m/S 592 mmHg 56%
    11:00 +25°C° 0 mm 1 m/S 592 mmHg 51%
    12:00 +26°C° 0.3 mm 2 m/S 592 mmHg 50%
    13:00 +26°C° 0.3 mm 2 m/S 591 mmHg 48%
    14:00 +27°C° 0.3 mm 3 m/S 591 mmHg 47%
    15:00 +26°C° 0.4 mm 3 m/S 591 mmHg 52%
    16:00 +25°C° 0.4 mm 3 m/S 590 mmHg 58%
    17:00 +24°C° 0.4 mm 2 m/S 590 mmHg 63%
    18:00 +23°C° 0.7 mm 2 m/S 590 mmHg 69%
    19:00 +21°C° 0.7 mm 1 m/S 589 mmHg 75%
    20:00 +19°C° 0.7 mm 1 m/S 589 mmHg 80%
    21:00 +19°C° 0.4 mm 1 m/S 589 mmHg 81%
    22:00 +18°C° 0.4 mm 1 m/S 589 mmHg 82%
    23:00 +18°C° 0.4 mm 1 m/S 589 mmHg 84%

    26 August, Montag

    Zeit Temperatur Niederschläge Wind Luftdruck Luftfeuchtigkeit
    00:00 +16°C° 1.1 mm 1 m/S 588 mmHg 85%
    01:00 +16°C° 1.1 mm 1 m/S 588 mmHg 87%
    02:00 +16°C° 1.1 mm 1 m/S 587 mmHg 89%
    03:00 +15°C° 0.3 mm 1 m/S 587 mmHg 89%
    04:00 +15°C° 0.3 mm 1 m/S 587 mmHg 90%
    05:00 +14°C° 0.3 mm 0 m/S 587 mmHg 90%
    06:00 +15°C° 0 mm 0 m/S 588 mmHg 84%
    07:00 +17°C° 0 mm 0 m/S 589 mmHg 78%
    08:00 +18°C° 0 mm 0 m/S 590 mmHg 72%
    09:00 +20°C° 0.1 mm 0 m/S 590 mmHg 66%
    10:00 +21°C° 0.1 mm 0 m/S 590 mmHg 60%
    11:00 +23°C° 0.1 mm 0 m/S 591 mmHg 54%
    12:00 +25°C° 0.5 mm 1 m/S 590 mmHg 53%
    13:00 +26°C° 0.5 mm 1 m/S 590 mmHg 51%
    14:00 +26°C° 0.5 mm 2 m/S 590 mmHg 50%
    15:00 +25°C° 0.6 mm 2 m/S 589 mmHg 56%
    16:00 +24°C° 0.6 mm 3 m/S 589 mmHg 62%
    17:00 +22°C° 0.6 mm 3 m/S 588 mmHg 68%
    18:00 +21°C° 0.7 mm 2 m/S 588 mmHg 72%
    19:00 +19°C° 0.7 mm 2 m/S 588 mmHg 77%
    20:00 +19°C° 0.7 mm 1 m/S 589 mmHg 82%
    21:00 +18°C° 0.5 mm 1 m/S 588 mmHg 84%
    22:00 +18°C° 0.5 mm 1 m/S 588 mmHg 85%
    23:00 +16°C° 0.5 mm 1 m/S 588 mmHg 87%

    27 August, Dienstag

    Zeit Temperatur Niederschläge Wind Luftdruck Luftfeuchtigkeit
    00:00 +14°C° 0.1 mm 0 m/S 588 mmHg 87%
    01:00 +14°C° 0.1 mm 0 m/S 587 mmHg 88%
    02:00 +14°C° 0.1 mm 0 m/S 587 mmHg 89%
    03:00 +13°C° 0 mm 0 m/S 587 mmHg 89%
    04:00 +13°C° 0 mm 0 m/S 587 mmHg 89%
    05:00 +13°C° 0 mm 0 m/S 587 mmHg 89%
    06:00 +15°C° 0 mm 0 m/S 588 mmHg 83%
    07:00 +16°C° 0 mm 0 m/S 589 mmHg 77%
    08:00 +18°C° 0 mm 0 m/S 590 mmHg 71%
    09:00 +19°C° 0.4 mm 0 m/S 590 mmHg 66%
    10:00 +23°C° 0.4 mm 1 m/S 590 mmHg 60%
    11:00 +24°C° 0.4 mm 1 m/S 591 mmHg 55%
    12:00 +25°C° 0.5 mm 2 m/S 590 mmHg 53%
    13:00 +25°C° 0.5 mm 2 m/S 590 mmHg 51%
    14:00 +26°C° 0.5 mm 3 m/S 590 mmHg 48%
    15:00 +24°C° 0.8 mm 3 m/S 590 mmHg 56%
    16:00 +22°C° 0.8 mm 3 m/S 589 mmHg 64%
    17:00 +21°C° 0.8 mm 3 m/S 589 mmHg 71%
    18:00 +20°C° 0.4 mm 3 m/S 589 mmHg 75%
    19:00 +18°C° 0.4 mm 2 m/S 589 mmHg 79%
    20:00 +18°C° 0.4 mm 1 m/S 589 mmHg 82%
    21:00 +18°C° 0.6 mm 1 m/S 589 mmHg 83%
    22:00 +16°C° 0.6 mm 1 m/S 589 mmHg 84%
    23:00 +16°C° 0.6 mm 1 m/S 589 mmHg 85%

    28 August, Mittwoch

    Zeit Temperatur Niederschläge Wind Luftdruck Luftfeuchtigkeit
    00:00 +16°C° 0.3 mm 1 m/S 589 mmHg 85%
    01:00 +15°C° 0.3 mm 1 m/S 589 mmHg 86%
    02:00 +14°C° 0.3 mm 0 m/S 588 mmHg 87%
    03:00 +13°C° 0.1 mm 0 m/S 588 mmHg 87%
    04:00 +13°C° 0.1 mm 0 m/S 588 mmHg 87%
    05:00 +13°C° 0.1 mm 0 m/S 588 mmHg 87%
    06:00 +14°C° 0 mm 0 m/S 589 mmHg 81%
    07:00 +16°C° 0 mm 0 m/S 590 mmHg 75%
    08:00 +18°C° 0 mm 0 m/S 591 mmHg 69%
    09:00 +21°C° 0.6 mm 1 m/S 591 mmHg 64%
    10:00 +22°C° 0.6 mm 1 m/S 592 mmHg 59%
    11:00 +24°C° 0.6 mm 2 m/S 592 mmHg 54%
    12:00 +24°C° 0.6 mm 3 m/S 592 mmHg 55%
    13:00 +23°C° 0.6 mm 4 m/S 591 mmHg 56%
    14:00 +25°C° 0.6 mm 5 m/S 591 mmHg 57%
    15:00 +22°C° 2.7 mm 4 m/S 590 mmHg 64%
    16:00 +21°C° 2.7 mm 4 m/S 590 mmHg 72%
    17:00 +19°C° 2.7 mm 4 m/S 589 mmHg 79%
    18:00 +18°C° 1.1 mm 3 m/S 590 mmHg 82%
    19:00 +17°C° 1.1 mm 2 m/S 590 mmHg 85%
    20:00 +16°C° 1.1 mm 2 m/S 590 mmHg 89%
    21:00 +16°C° 0.4 mm 2 m/S 590 mmHg 89%
    22:00 +15°C° 0.4 mm 1 m/S 590 mmHg 89%
    23:00 +15°C° 0.4 mm 1 m/S 590 mmHg 90%
    Mehr zeigen